AUA57U LIRN-LOWW

Flight info

Callsign AUA57U
Flight time 1h 17m
Altitude 36000
Route BEDPI7G BEDPI DCT MOLUX DCT XAMIT/N0437F370 DCT KUDUL DCT NEMEK DCT LAPNA LAPNA2W
Aircraft A321/M-SDE2E3FGIJ1RWXY/LB1

Departure

Time 2026-04-25 18:57
Airport Naples International Airport (LIRN)

Arrival

Time 2026-04-25 20:14
Airport Vienna International Airport (LOWW)
Time Latitude Longitude Altitude Speed Heading
2026-04-25 18:19 40.87815 14.28041 302 ft 0 kts 141°
2026-04-25 18:49 40.87823 14.28032 306 ft 4 kts 141°
2026-04-25 18:50 40.87844 14.28010 302 ft 4 kts 141°
2026-04-25 18:50 40.87860 14.27992 304 ft 4 kts 133°
2026-04-25 18:50 40.87867 14.27972 306 ft 5 kts 57°
2026-04-25 18:50 40.87852 14.27946 305 ft 4 kts 51°
2026-04-25 18:51 40.87849 14.27942 304 ft 3 kts 51°
2026-04-25 18:52 40.87873 14.27981 305 ft 11 kts 51°
2026-04-25 18:52 40.87943 14.28094 301 ft 19 kts 54°
2026-04-25 18:53 40.87951 14.28272 296 ft 21 kts 97°
2026-04-25 18:53 40.87953 14.28474 293 ft 24 kts 46°
2026-04-25 18:53 40.88058 14.28629 291 ft 24 kts 53°
2026-04-25 18:53 40.88165 14.28814 284 ft 27 kts 52°
2026-04-25 18:54 40.88409 14.29237 273 ft 31 kts 52°
2026-04-25 18:54 40.88543 14.29468 267 ft 33 kts 52°
2026-04-25 18:54 40.88679 14.29702 260 ft 32 kts 52°
2026-04-25 18:55 40.88812 14.29934 253 ft 32 kts 53°
2026-04-25 18:55 40.88942 14.30159 245 ft 29 kts 52°
2026-04-25 18:55 40.89058 14.30362 237 ft 24 kts 52°
2026-04-25 18:55 40.89167 14.30446 234 ft 17 kts 335°
2026-04-25 18:56 40.89219 14.30397 232 ft 3 kts 281°
2026-04-25 18:56 40.89218 14.30383 232 ft 5 kts 255°
2026-04-25 18:56 40.89193 14.30323 234 ft 17 kts 239°
2026-04-25 18:56 40.88978 14.29873 250 ft 96 kts 238°
2026-04-25 18:57 40.88507 14.28874 279 ft 157 kts 237°
2026-04-25 18:57 40.87909 14.27596 882 ft 162 kts 236°
2026-04-25 18:57 40.87156 14.26469 1624 ft 169 kts 215°
2026-04-25 18:57 40.86809 14.26209 1873 ft 171 kts 204°
2026-04-25 18:58 40.84918 14.26235 2857 ft 165 kts 171°
2026-04-25 18:58 40.82620 14.26664 3776 ft 173 kts 174°
2026-04-25 18:58 40.81390 14.26875 4126 ft 185 kts 174°
2026-04-25 18:59 40.78675 14.27331 4893 ft 209 kts 174°
2026-04-25 18:59 40.75726 14.27827 5949 ft 217 kts 174°
2026-04-25 19:00 40.72714 14.28475 7106 ft 219 kts 158°
2026-04-25 19:00 40.71888 14.29240 7547 ft 213 kts 130°
2026-04-25 19:01 40.71575 14.32891 8493 ft 216 kts 75°
2026-04-25 19:01 40.71930 14.34867 8843 ft 228 kts 76°
2026-04-25 19:01 40.72275 14.36972 9157 ft 243 kts 77°
2026-04-25 19:01 40.72626 14.39204 9665 ft 252 kts 77°
2026-04-25 19:02 40.73828 14.43517 10882 ft 255 kts 44°
2026-04-25 19:02 40.75274 14.44844 11493 ft 255 kts 27°
2026-04-25 19:02 40.76904 14.45929 11865 ft 271 kts 26°
2026-04-25 19:03 40.79869 14.47907 12287 ft 303 kts 27°
2026-04-25 19:03 40.82445 14.49680 12602 ft 328 kts 27°
2026-04-25 19:03 40.84519 14.51124 12841 ft 345 kts 27°
2026-04-25 19:04 40.88962 14.54246 13316 ft 377 kts 27°
2026-04-25 19:04 40.91294 14.55890 13816 ft 382 kts 27°
2026-04-25 19:05 40.96021 14.59233 14905 ft 388 kts 28°
2026-04-25 19:05 41.00819 14.62634 15977 ft 394 kts 27°
2026-04-25 19:05 41.03243 14.64360 16508 ft 397 kts 27°
2026-04-25 19:06 41.05687 14.66081 17019 ft 400 kts 26°
2026-04-25 19:06 41.10829 14.69042 17992 ft 406 kts 22°
2026-04-25 19:06 41.13445 14.70497 18463 ft 410 kts 22°
2026-04-25 19:07 41.18728 14.73448 19326 ft 415 kts 22°
2026-04-25 19:07 41.21397 14.74944 19776 ft 417 kts 22°
2026-04-25 19:08 41.26725 14.78096 20641 ft 422 kts 25°
2026-04-25 19:08 41.29401 14.79717 21044 ft 424 kts 19°
2026-04-25 19:09 41.38190 14.80742 22248 ft 428 kts 358°
2026-04-25 19:09 41.40168 14.80709 22498 ft 430 kts 359°
2026-04-25 19:09 41.47209 14.80637 23405 ft 436 kts 358°
2026-04-25 19:10 41.50252 14.80616 23727 ft 438 kts 359°
2026-04-25 19:10 41.53310 14.80603 24041 ft 441 kts 359°
2026-04-25 19:10 41.56381 14.80588 24339 ft 443 kts 359°
2026-04-25 19:10 41.59472 14.80574 24636 ft 445 kts 359°
2026-04-25 19:11 41.62574 14.80562 24923 ft 447 kts 358°
2026-04-25 19:11 41.65690 14.80546 25219 ft 449 kts 359°
2026-04-25 19:11 41.68786 14.80530 25497 ft 451 kts 359°
2026-04-25 19:11 41.71932 14.80516 25784 ft 454 kts 359°
2026-04-25 19:12 41.75096 14.80499 26065 ft 456 kts 359°
2026-04-25 19:12 41.78272 14.80484 26370 ft 457 kts 359°
2026-04-25 19:12 41.81459 14.80473 26663 ft 459 kts 359°
2026-04-25 19:12 41.84651 14.80466 26926 ft 460 kts 359°
2026-04-25 19:13 41.87864 14.80451 27190 ft 462 kts 359°
2026-04-25 19:13 41.91089 14.80435 27439 ft 464 kts 359°
2026-04-25 19:13 41.94332 14.80418 27692 ft 466 kts 359°
2026-04-25 19:13 41.97574 14.80401 28005 ft 466 kts 359°
2026-04-25 19:14 42.00821 14.80386 28342 ft 466 kts 359°
2026-04-25 19:14 42.02965 14.80379 28563 ft 465 kts 359°
2026-04-25 19:14 42.07292 14.80365 29023 ft 464 kts 359°
2026-04-25 19:14 42.10523 14.80350 29362 ft 464 kts 359°
2026-04-25 19:15 42.12655 14.80339 29576 ft 463 kts 358°
2026-04-25 19:15 42.16970 14.80320 30002 ft 463 kts 359°
2026-04-25 19:15 42.20189 14.80302 30275 ft 463 kts 358°
2026-04-25 19:15 42.23413 14.80284 30549 ft 463 kts 359°
2026-04-25 19:16 42.26628 14.80272 30803 ft 462 kts 359°
2026-04-25 19:16 42.29850 14.80262 31073 ft 462 kts 358°
2026-04-25 19:16 42.33063 14.80244 31318 ft 462 kts 358°
2026-04-25 19:16 42.36274 14.80225 31573 ft 461 kts 358°
2026-04-25 19:17 42.39484 14.80212 31825 ft 461 kts 358°
2026-04-25 19:17 42.42690 14.80198 32079 ft 461 kts 358°
2026-04-25 19:17 42.45898 14.80182 32328 ft 461 kts 358°
2026-04-25 19:17 42.49059 14.80165 32580 ft 460 kts 358°
2026-04-25 19:18 42.52259 14.80155 32833 ft 460 kts 358°
2026-04-25 19:18 42.55500 14.80141 33088 ft 459 kts 358°
2026-04-25 19:18 42.58698 14.80125 33341 ft 459 kts 358°
2026-04-25 19:18 42.61850 14.80113 33577 ft 459 kts 358°
2026-04-25 19:19 42.65037 14.80100 33818 ft 459 kts 358°
2026-04-25 19:19 42.68231 14.80083 34050 ft 458 kts 358°
2026-04-25 19:19 42.71415 14.80066 34281 ft 458 kts 358°
2026-04-25 19:19 42.73566 14.80055 34430 ft 457 kts 358°
2026-04-25 19:20 42.77774 14.80038 34714 ft 456 kts 358°
2026-04-25 19:20 42.80945 14.80023 34912 ft 455 kts 358°
2026-04-25 19:20 42.84108 14.80004 35125 ft 455 kts 358°
2026-04-25 19:20 42.87269 14.79988 35332 ft 454 kts 358°
2026-04-25 19:21 42.90429 14.79976 35552 ft 453 kts 358°
2026-04-25 19:21 42.96716 14.79947 35948 ft 451 kts 358°
2026-04-25 19:21 42.99853 14.79931 36136 ft 451 kts 358°
2026-04-25 19:22 43.02989 14.79920 36323 ft 450 kts 358°
2026-04-25 19:22 43.06117 14.79905 36488 ft 450 kts 358°
2026-04-25 19:22 43.12365 14.79880 36807 ft 448 kts 357°
2026-04-25 19:23 43.15485 14.79865 36957 ft 448 kts 358°
2026-04-25 19:23 43.21717 14.79833 37099 ft 448 kts 357°
2026-04-25 19:23 43.24828 14.79814 37071 ft 447 kts 357°
2026-04-25 19:24 43.31049 14.79855 37059 ft 448 kts
2026-04-25 19:25 43.43437 14.82186 37061 ft 450 kts
2026-04-25 19:25 43.49633 14.83384 37061 ft 449 kts
2026-04-25 19:26 43.55822 14.84581 37059 ft 449 kts
2026-04-25 19:26 43.62012 14.85781 37060 ft 449 kts
2026-04-25 19:27 43.67150 14.86778 37061 ft 449 kts
2026-04-25 19:27 43.74390 14.88183 37060 ft 449 kts
2026-04-25 19:28 43.80575 14.89386 37057 ft 449 kts
2026-04-25 19:28 43.86767 14.90594 37056 ft 449 kts
2026-04-25 19:29 43.92959 14.91803 37057 ft 449 kts
2026-04-25 19:29 43.99144 14.93020 37060 ft 449 kts
2026-04-25 19:30 44.05329 14.94233 37060 ft 449 kts
2026-04-25 19:30 44.11523 14.95460 37055 ft 449 kts
2026-04-25 19:31 44.17714 14.96692 37047 ft 449 kts
2026-04-25 19:31 44.23867 14.97919 37051 ft 450 kts
2026-04-25 19:32 44.30063 14.99143 37036 ft 450 kts
2026-04-25 19:32 44.34206 14.99964 37029 ft 450 kts
2026-04-25 19:33 44.42458 15.01620 37037 ft 450 kts
2026-04-25 19:33 44.48657 15.02872 37029 ft 450 kts
2026-04-25 19:34 44.54853 15.04117 37037 ft 450 kts
2026-04-25 19:34 44.61058 15.05363 37043 ft 450 kts
2026-04-25 19:35 44.67265 15.06639 37037 ft 452 kts
2026-04-25 19:35 44.73446 15.08202 37036 ft 452 kts
2026-04-25 19:36 44.79638 15.09772 37037 ft 452 kts
2026-04-25 19:36 44.85820 15.11322 37029 ft 452 kts
2026-04-25 19:37 44.92023 15.12901 37035 ft 452 kts
2026-04-25 19:37 44.98206 15.14478 37039 ft 452 kts
2026-04-25 19:38 45.04392 15.16067 37034 ft 452 kts
2026-04-25 19:38 45.10573 15.17653 37025 ft 452 kts
2026-04-25 19:39 45.16764 15.19246 37035 ft 452 kts
2026-04-25 19:39 45.22957 15.20842 37012 ft 453 kts
2026-04-25 19:40 45.29113 15.22433 37015 ft 453 kts
2026-04-25 19:40 45.35302 15.24039 37022 ft 453 kts
2026-04-25 19:41 45.41509 15.25659 36999 ft 453 kts
2026-04-25 19:41 45.45658 15.26741 36995 ft 452 kts
2026-04-25 19:42 45.53905 15.28894 37000 ft 453 kts
2026-04-25 19:42 45.60107 15.30424 36997 ft 452 kts
2026-04-25 19:43 45.66317 15.31841 36989 ft 452 kts
2026-04-25 19:43 45.72529 15.33268 36991 ft 452 kts
2026-04-25 19:44 45.78738 15.34690 36994 ft 452 kts
2026-04-25 19:44 45.84951 15.36093 36993 ft 452 kts
2026-04-25 19:45 45.91153 15.37519 36690 ft 451 kts
2026-04-25 19:45 45.94249 15.38234 36419 ft 451 kts
2026-04-25 19:45 45.97349 15.38945 36120 ft 451 kts
2026-04-25 19:46 46.00449 15.39664 35820 ft 452 kts
2026-04-25 19:46 46.03557 15.40382 35520 ft 453 kts
2026-04-25 19:46 46.06678 15.41103 35222 ft 454 kts
2026-04-25 19:46 46.08728 15.41682 35028 ft 458 kts 10°
2026-04-25 19:47 46.11789 15.43054 34760 ft 461 kts 14°
2026-04-25 19:47 46.14833 15.44543 34526 ft 462 kts 14°
2026-04-25 19:47 46.17883 15.46032 34278 ft 463 kts 14°
2026-04-25 19:47 46.20938 15.47500 34036 ft 464 kts 14°
2026-04-25 19:48 46.24010 15.48963 33782 ft 464 kts 13°
2026-04-25 19:48 46.27080 15.50416 33504 ft 465 kts 13°
2026-04-25 19:48 46.30166 15.51875 33231 ft 466 kts 13°
2026-04-25 19:48 46.33242 15.53334 32829 ft 466 kts 13°
2026-04-25 19:49 46.36328 15.54801 32370 ft 467 kts 13°
2026-04-25 19:49 46.38412 15.55793 32066 ft 468 kts 13°
2026-04-25 19:49 46.42522 15.57751 31467 ft 470 kts 14°
2026-04-25 19:49 46.45630 15.59235 31031 ft 471 kts 14°
2026-04-25 19:50 46.51890 15.62230 30365 ft 475 kts 14°
2026-04-25 19:50 46.55024 15.63732 30110 ft 474 kts 14°
2026-04-25 19:50 46.58155 15.65236 29826 ft 475 kts 14°
2026-04-25 19:51 46.61294 15.66743 29380 ft 475 kts 14°
2026-04-25 19:51 46.64431 15.68250 28857 ft 474 kts 14°
2026-04-25 19:51 46.67563 15.69756 28326 ft 474 kts 14°
2026-04-25 19:51 46.70697 15.71266 27792 ft 474 kts 14°
2026-04-25 19:52 46.73827 15.72777 27289 ft 474 kts 14°
2026-04-25 19:52 46.76963 15.74293 26772 ft 474 kts 14°
2026-04-25 19:52 46.80095 15.75806 26270 ft 475 kts 14°
2026-04-25 19:52 46.83234 15.77328 25788 ft 475 kts 14°
2026-04-25 19:53 46.86367 15.78846 25291 ft 475 kts 14°
2026-04-25 19:53 46.89495 15.80362 24812 ft 475 kts 14°
2026-04-25 19:53 46.92638 15.81888 24339 ft 474 kts 14°
2026-04-25 19:53 46.95752 15.83404 23881 ft 466 kts 14°
2026-04-25 19:54 46.98790 15.84887 23464 ft 454 kts 14°
2026-04-25 19:54 47.01739 15.86329 23118 ft 439 kts 14°
2026-04-25 19:54 47.04591 15.87727 22816 ft 425 kts 14°
2026-04-25 19:54 47.06431 15.88629 22620 ft 417 kts 14°
2026-04-25 19:55 47.10058 15.90399 22246 ft 408 kts 14°
2026-04-25 19:55 47.12744 15.91711 21995 ft 407 kts 14°
2026-04-25 19:55 47.15424 15.93022 21730 ft 405 kts 14°
2026-04-25 19:55 47.18095 15.94332 21466 ft 404 kts 14°
2026-04-25 19:56 47.20749 15.95637 21218 ft 402 kts 14°
2026-04-25 19:56 47.23397 15.96964 20959 ft 402 kts 17°
2026-04-25 19:56 47.25844 15.98992 20604 ft 408 kts 35°
2026-04-25 19:56 47.27851 16.01958 20210 ft 410 kts 46°
2026-04-25 19:57 47.29687 16.05166 19783 ft 408 kts 47°
2026-04-25 19:57 47.31511 16.08362 19371 ft 406 kts 46°
2026-04-25 19:57 47.33339 16.11509 18945 ft 403 kts 46°
2026-04-25 19:57 47.35170 16.14626 18518 ft 400 kts 45°
2026-04-25 19:58 47.36991 16.17714 18062 ft 399 kts 45°
2026-04-25 19:58 47.38806 16.20789 17579 ft 395 kts 45°
2026-04-25 19:58 47.40601 16.23832 17114 ft 392 kts 45°
2026-04-25 19:58 47.42385 16.26861 16652 ft 389 kts 45°
2026-04-25 19:59 47.44157 16.29871 16186 ft 387 kts 45°
2026-04-25 19:59 47.45914 16.32859 15765 ft 384 kts 45°
2026-04-25 19:59 47.47653 16.35822 15381 ft 381 kts 45°
2026-04-25 19:59 47.49371 16.38752 15021 ft 381 kts 45°
2026-04-25 20:00 47.51104 16.41711 14660 ft 379 kts 45°
2026-04-25 20:00 47.52267 16.43700 14463 ft 378 kts 45°
2026-04-25 20:00 47.54545 16.47593 14123 ft 377 kts 45°
2026-04-25 20:00 47.56258 16.50516 13879 ft 375 kts 44°
2026-04-25 20:01 47.60374 16.54963 13174 ft 363 kts 26°
2026-04-25 20:01 47.62547 16.56844 12676 ft 362 kts 26°
2026-04-25 20:01 47.64700 16.58740 12170 ft 358 kts 27°
2026-04-25 20:02 47.66799 16.60627 11785 ft 346 kts 28°
2026-04-25 20:02 47.68797 16.62443 11448 ft 328 kts 28°
2026-04-25 20:02 47.70692 16.64173 11155 ft 311 kts 28°
2026-04-25 20:02 47.72479 16.65807 10982 ft 294 kts 27°
2026-04-25 20:03 47.74174 16.67359 10843 ft 279 kts 27°
2026-04-25 20:03 47.75786 16.68835 10693 ft 266 kts 27°
2026-04-25 20:03 47.77337 16.70255 10447 ft 260 kts 27°
2026-04-25 20:03 47.78874 16.71660 10120 ft 259 kts 27°
2026-04-25 20:04 47.80400 16.73059 9852 ft 254 kts 27°
2026-04-25 20:04 47.81888 16.74425 9579 ft 250 kts 27°
2026-04-25 20:04 47.83359 16.75775 9256 ft 247 kts 28°
2026-04-25 20:04 47.84812 16.77112 8927 ft 244 kts 27°
2026-04-25 20:05 47.86251 16.78436 8572 ft 242 kts 28°
2026-04-25 20:05 47.87682 16.79756 8222 ft 240 kts 28°
2026-04-25 20:05 47.89099 16.81062 7878 ft 239 kts 28°
2026-04-25 20:05 47.90505 16.82361 7533 ft 237 kts 28°
2026-04-25 20:06 47.91904 16.83650 7198 ft 236 kts 28°
2026-04-25 20:06 47.93291 16.84934 6873 ft 234 kts 28°
2026-04-25 20:06 47.94648 16.86192 6548 ft 232 kts 28°
2026-04-25 20:06 47.96008 16.87457 6219 ft 229 kts 28°
2026-04-25 20:07 47.97358 16.88713 5860 ft 228 kts 28°
2026-04-25 20:07 47.98700 16.89953 5505 ft 226 kts 28°
2026-04-25 20:07 48.00058 16.91182 5154 ft 223 kts 21°
2026-04-25 20:07 48.01519 16.91589 4811 ft 215 kts 352°
2026-04-25 20:08 48.02887 16.90810 4451 ft 211 kts 321°
2026-04-25 20:08 48.03735 16.89085 4190 ft 205 kts 290°
2026-04-25 20:08 48.03834 16.86996 4048 ft 195 kts 268°
2026-04-25 20:08 48.03650 16.85119 3966 ft 176 kts 265°
2026-04-25 20:09 48.03456 16.83395 3838 ft 162 kts 265°
2026-04-25 20:09 48.03318 16.81746 3570 ft 152 kts 281°
2026-04-25 20:09 48.03594 16.80276 3421 ft 148 kts 295°
2026-04-25 20:09 48.04000 16.78867 3319 ft 147 kts 297°
2026-04-25 20:10 48.04420 16.77476 3208 ft 147 kts 298°
2026-04-25 20:10 48.04862 16.76097 3103 ft 144 kts 299°
2026-04-25 20:10 48.05293 16.74772 3006 ft 144 kts 299°
2026-04-25 20:10 48.05729 16.73433 2857 ft 143 kts 299°
2026-04-25 20:11 48.06163 16.72103 2690 ft 142 kts 298°
2026-04-25 20:11 48.06594 16.70781 2499 ft 141 kts 297°
2026-04-25 20:11 48.07023 16.69466 2319 ft 140 kts 297°
2026-04-25 20:11 48.07449 16.68161 2131 ft 140 kts 297°
2026-04-25 20:12 48.07875 16.66853 1959 ft 140 kts 296°
2026-04-25 20:12 48.08295 16.65564 1802 ft 133 kts 296°
2026-04-25 20:12 48.08696 16.64333 1614 ft 131 kts 296°
2026-04-25 20:12 48.08832 16.63919 1544 ft 130 kts 296°
2026-04-25 20:13 48.09502 16.61858 1254 ft 133 kts 295°
2026-04-25 20:13 48.09911 16.60609 1055 ft 133 kts 294°
2026-04-25 20:13 48.10308 16.59389 883 ft 129 kts 295°
2026-04-25 20:13 48.10702 16.58186 734 ft 129 kts 295°
2026-04-25 20:14 48.11092 16.56994 622 ft 120 kts 295°
2026-04-25 20:14 48.11405 16.56026 618 ft 87 kts 296°
2026-04-25 20:14 48.11593 16.55473 620 ft 46 kts 304°
2026-04-25 20:14 48.11749 16.55218 614 ft 19 kts 316°
2026-04-25 20:15 48.11874 16.55151 620 ft 20 kts 52°
2026-04-25 20:15 48.11837 16.55345 621 ft 23 kts 115°
2026-04-25 20:15 48.11762 16.55576 614 ft 26 kts 116°
2026-04-25 20:15 48.11676 16.55839 616 ft 30 kts 115°
2026-04-25 20:16 48.11581 16.56131 617 ft 33 kts 116°
2026-04-25 20:16 48.11482 16.56433 624 ft 33 kts 116°
2026-04-25 20:16 48.11392 16.56708 618 ft 28 kts 115°
2026-04-25 20:16 48.11304 16.56981 621 ft 27 kts 116°
2026-04-25 20:17 48.11235 16.57194 623 ft 18 kts 110°
2026-04-25 20:17 48.11311 16.57329 619 ft 21 kts 26°
2026-04-25 20:17 48.11448 16.57429 614 ft 20 kts 25°
2026-04-25 20:17 48.11591 16.57438 617 ft 23 kts 342°
2026-04-25 20:18 48.11712 16.57387 616 ft 5 kts 343°
2026-04-25 20:18 48.11720 16.57384 623 ft 1 kts 344°
2026-04-25 20:18 48.11741 16.57375 616 ft 5 kts 344°
2026-04-25 20:18 48.11795 16.57348 614 ft 11 kts 329°
2026-04-25 20:19 48.11848 16.57229 620 ft 17 kts 284°
2026-04-25 20:19 48.11886 16.57049 618 ft 20 kts 297°
2026-04-25 20:19 48.11916 16.56923 619 ft 10 kts 242°
2026-04-25 20:19 48.11877 16.56887 614 ft 4 kts 205°
2026-04-25 20:20 48.11865 16.56878 614 ft 0 kts 205°